Yakima, WA
on Wednesday, February 6, 2013

Wednesday
Previous Day Next Day
Daily Summary
 ActualAverageRecord
Temperature
Mean Temperature °F 34°F  
Max Temperature 51°F 44°F 60°F (1967)
Min Temperature 27°F 25°F 0°F (1985)
Degree Days
Heating Degree Days 26 30  
Month to date heating degree days 151 185  
Since 1 July heating degree days 3420 3903  
Cooling Degree Days 0 0  
Month to date cooling degree days 0 0  
Year to date cooling degree days 0 0  
Moisture
Dew Point 30°F   
Average Humidity 68    
Maximum Humidity 85    
Minimum Humidity 50    
Precipitation
Precipitation T in 0.03 in 0.58 in (1996)
Month to date precipitation T 0.17  
Year to date precipitation 0.10 1.31  
Snow
Snow 0.00 in 0.10 in 3.50 in (1975)
Month to date snowfall 0.0 0.7  
Year to date snowfall 1.1 6.0  
Since 1 July snowfall 15.3 19.0  
Snow Depth 0.00 in   
Wind
Wind Speed 4 mph   
Max Wind Speed 22 mph   
Max Gust Speed 26 mph   
Visibility 10 miles   
Events     

Key: T is trace of precipitation, MM is missing value
Source: NWS Daily Summary
Time(PST)TemperatureDew PointHumidity Pressure Visibility Wind DirectionWind SpeedGust SpeedPrecipitationEvents Conditions
12:53 AM 35.1°F 28.0°F 76% 29.96 in 10.0 miles Calm Calm - N/A   Clear
1:53 AM 33.1°F 28.0°F 82% 29.97 in 10.0 miles Calm Calm - N/A   Clear
2:53 AM 33.1°F 28.0°F 82% 29.99 in 10.0 miles Calm Calm - N/A   Clear
3:53 AM 30.9°F 27.0°F 85% 30.00 in 10.0 miles Calm Calm - N/A   Clear
4:53 AM 30.0°F 26.1°F 85% 30.02 in 10.0 miles Calm Calm - N/A   Clear
5:53 AM 28.0°F 23.0°F 81% 30.04 in 10.0 miles WNW 5.8 mph - N/A   Partly Cloudy
6:53 AM 28.9°F 25.0°F 85% 30.04 in 10.0 miles NW 4.6 mph - N/A   Clear
7:53 AM 33.1°F 28.0°F 82% 30.05 in 10.0 miles NNW 3.5 mph - N/A   Scattered Clouds
8:53 AM 36.0°F 30.0°F 79% 30.07 in 10.0 miles Calm Calm - N/A   Clear
9:53 AM 39.2°F 33.8°F 81% 30.05 in 10.0 miles Calm Calm - N/A   Clear
10:53 AM 46.9°F 34.0°F 61% 30.07 in 10.0 miles ESE 3.5 mph - N/A   Scattered Clouds
11:53 AM 48.9°F 32.0°F 52% 30.06 in 10.0 miles ESE 4.6 mph - N/A   Mostly Cloudy
12:53 PM 51.1°F 34.0°F 52% 30.04 in 10.0 miles West 6.9 mph - N/A   Mostly Cloudy
1:53 PM 50.0°F 33.1°F 52% 30.02 in 10.0 miles South 16.1 mph 23.0 mph N/A   Mostly Cloudy
2:53 PM 50.0°F 33.1°F 52% 30.01 in 10.0 miles South 17.3 mph 23.0 mph N/A   Mostly Cloudy
3:53 PM 50.0°F 32.0°F 50% 29.99 in 10.0 miles SSW 11.5 mph 26.5 mph N/A   Overcast
4:53 PM 46.9°F 33.1°F 59% 29.99 in 10.0 miles SSW 3.5 mph - N/A   Overcast
5:53 PM 48.0°F 32.0°F 54% 29.99 in 10.0 miles Calm Calm - 0.00 in   Overcast
6:53 PM 44.1°F 32.0°F 63% 29.97 in 10.0 miles East 4.6 mph - N/A   Mostly Cloudy
7:53 PM 43.0°F 32.0°F 65% 29.97 in 10.0 miles Calm Calm - N/A   Mostly Cloudy
8:53 PM 37.9°F 30.0°F 73% 29.96 in 10.0 miles Calm Calm - N/A   Overcast
9:53 PM 37.0°F 30.0°F 76% 29.94 in 10.0 miles WNW 3.5 mph - N/A   Mostly Cloudy
10:53 PM 37.9°F 30.9°F 76% 29.92 in 10.0 miles Calm Calm - N/A   Overcast
11:53 PM 37.9°F 32.0°F 79% 29.91 in 10.0 miles West 5.8 mph - N/A   Overcast
Moon Phase
Feb. 06 Feb. 10 Feb. 17 Feb. 25 Mar. 04
Sunrise:07:18 AM (PST) Moon Rise:04:14 AM (PST)2/6
Sunset:05:14 PM (PST) Moon Set:01:31 PM (PST)2/6

Copyright © 2014 The Weather Underground, Inc.